Chillicothe, MO

4:22 PM CDT on July 22, 2017 (GMT -0500)
Chillicothe

Weather History for KCDJ - April, 2012

Change the Weather History Date:

Saturday, April 14, 2012

  Actual Average (KIRK) Record (KIRK)
Temperature  
Mean Temperature 64 °F -  
Max Temperature 75 °F 63 °F 86 °F (2006)
Min Temperature 55 °F 40 °F 22 °F (1928)
Degree Days  
Heating Degree Days 1    
Growing Degree Days 14 (Base 50)    
Moisture  
Dew Point 60 °F    
Average Humidity 81    
Maximum Humidity 97    
Minimum Humidity 64    
Precipitation  
Precipitation 0.51 in - - ()
Sea Level Pressure  
Sea Level Pressure 29.76 in    
Wind  
Wind Speed 4 mph (SSE)    
Max Wind Speed 14 mph    
Max Gust Speed 22 mph    
Averages and records for this station are not official NWS values.
T = Trace of Precipitation, MM = Missing Value Source: NWS Daily Summary

Daily Weather History Graph

Daily Weather History Graph

Search for Another Location

Airport or City:

Trip Planner

Search our weather history database for the weather conditions in past years. The results will help you decide how hot, cold, wet, or windy it might be!

Date:

Astronomy

Apr. 14, 2012 Rise Set
Actual Time 6:37 AM CDT 7:52 PM CDT
Civil Twilight 6:09 AM CDT 8:20 PM CDT
Nautical Twilight 5:36 AM CDT 8:53 PM CDT
Astronomical Twilight 5:01 AM CDT 9:28 PM CDT
Moon 3:00 AM CDT (4/14) 1:46 PM CDT (4/14)
Length of Visible Light 14h 10m
Length of Day
13h 14m
Last Quarter, 37% of the Moon is Illuminated
Apr 14
Last Quarter
Apr 21
New
Apr 29
First Quarter
May 5
Full
May 12
Last Quarter

Hourly Weather History & Observations

Time (CDT) Temp. Dew Point Humidity Pressure Visibility Wind Dir Wind Speed Gust Speed Precip Events Conditions
12:52 AM 55.9 °F 54.0 °F 93% 29.88 in - Calm Calm - N/A   Unknown
1:52 AM 57.0 °F 55.0 °F 93% 29.88 in - Calm Calm - N/A   Unknown
2:52 AM 55.9 °F 55.0 °F 97% 29.87 in - Calm Calm - N/A   Unknown
3:52 AM 57.0 °F 55.0 °F 93% 29.86 in - Calm Calm - N/A   Unknown
4:52 AM 57.0 °F 55.0 °F 93% 29.86 in - Calm Calm - N/A   Unknown
5:52 AM 59.0 °F 57.9 °F 96% 29.85 in - SE 3.5 mph - 0.48 in   Unknown
6:52 AM 59.0 °F 57.9 °F 96% 29.86 in - Calm Calm - N/A   Unknown
7:52 AM 59.0 °F 57.0 °F 93% 29.86 in - ESE 5.8 mph - N/A   Unknown
8:52 AM 60.1 °F 57.9 °F 93% 29.86 in - Calm Calm - 0.03 in   Unknown
9:52 AM 62.1 °F 60.1 °F 93% 29.85 in - SE 5.8 mph - N/A   Unknown
10:52 AM 63.0 °F 60.1 °F 90% 29.86 in - SE 6.9 mph - N/A   Unknown
11:52 AM 68.0 °F 62.1 °F 81% 29.83 in - SE 6.9 mph - N/A   Unknown
12:52 PM 73.0 °F 61.0 °F 66% 29.78 in - SSE 13.8 mph 21.9 mph N/A   Unknown
1:52 PM 72.0 °F 61.0 °F 68% 29.77 in - SSE 9.2 mph 20.7 mph N/A   Unknown
2:52 PM 73.9 °F 61.0 °F 64% 29.72 in - South 11.5 mph - N/A   Unknown
3:52 PM 73.0 °F 61.0 °F 66% 29.68 in - South 11.5 mph 19.6 mph N/A   Unknown
4:52 PM 73.0 °F 62.1 °F 68% 29.67 in - South 9.2 mph 18.4 mph N/A   Unknown
5:52 PM 73.9 °F 62.1 °F 66% 29.63 in - SE 9.2 mph - N/A   Unknown
6:52 PM 72.0 °F 64.0 °F 76% 29.64 in - South 11.5 mph 20.7 mph N/A   Unknown
7:52 PM 71.1 °F 63.0 °F 75% 29.63 in - South 12.7 mph 19.6 mph N/A   Unknown
8:52 PM 72.0 °F 62.1 °F 71% 29.63 in - South 9.2 mph 19.6 mph N/A   Unknown
9:52 PM 72.0 °F 62.1 °F 71% 29.60 in - South 11.5 mph 17.3 mph N/A   Unknown
10:52 PM 72.0 °F 61.0 °F 68% 29.55 in - South 11.5 mph 20.7 mph N/A   Unknown
11:52 PM 71.1 °F 61.0 °F 70% 29.55 in - South 11.5 mph 21.9 mph N/A   Unknown